Location: Saint-Palais-sur-Mer
(45.6429°N, 1.0859°W)
Time: 00:56:32
(UTC+01:00)

Tiros 1 despin weight - Pass Details

Date: 17 February 2026
Orbit: 556 x 593 km, 48.2° (Epoch: 13 March)

Event Time Altitude Azimuth Distance (km) Brightness Sun altitude
Rises 14:44:29 0° 185° (S) 2,734 ? 29.3°
Reaches altitude 10° 14:48:43 10° 144° (SE) 1,837 ? 29.0°
Maximum altitude 14:49:27 10° 134° (SE) 1,811 ? 28.9°
Drops below altitude 10° 14:50:12 10° 123° (ESE) 1,837 ? 28.9°
Sets 14:54:24 0° 83° (E) 2,733 ? 28.6°
